TimeEST,TemperatureF,Dew PointF,Humidity,Sea Level PressureIn,VisibilityMPH,Wind Direction,Wind SpeedMPH,Gust SpeedMPH,PrecipitationIn,Events,Conditions,WindDirDegrees,DateUTC
12:53 AM,26.1,18.0,71,29.97,10.0,WSW,8.1,-,N/A,,Overcast,250,2013-02-24 05:53:00
1:53 AM,26.1,18.0,71,29.98,9.0,WSW,9.2,-,N/A,,Overcast,250,2013-02-24 06:53:00
2:53 AM,26.1,18.0,71,29.99,10.0,West,10.4,-,N/A,,Overcast,270,2013-02-24 07:53:00
3:53 AM,26.1,19.0,75,29.98,10.0,West,13.8,-,N/A,,Overcast,260,2013-02-24 08:53:00
4:53 AM,25.0,19.0,78,30.00,8.0,WSW,11.5,-,N/A,,Overcast,240,2013-02-24 09:53:00
5:53 AM,24.1,18.0,77,30.02,7.0,WSW,8.1,-,N/A,,Overcast,250,2013-02-24 10:53:00
6:00 AM,24.8,17.6,74,29.99,7.0,WSW,9.2,-,N/A,,Overcast,250,2013-02-24 11:00:00
6:53 AM,24.1,18.0,77,30.04,6.0,WSW,9.2,-,N/A,,Haze,250,2013-02-24 11:53:00
7:53 AM,23.0,18.0,81,30.05,5.0,WSW,9.2,-,N/A,,Haze,250,2013-02-24 12:53:00
8:53 AM,23.0,17.1,78,30.08,4.0,WSW,6.9,-,N/A,,Haze,240,2013-02-24 13:53:00
9:53 AM,25.0,19.0,78,30.10,5.0,WSW,11.5,-,N/A,,Haze,250,2013-02-24 14:53:00
10:53 AM,28.0,21.0,75,30.10,6.0,WSW,8.1,-,N/A,,Haze,240,2013-02-24 15:53:00
11:53 AM,30.0,21.9,72,30.12,7.0,WSW,10.4,-,N/A,,Clear,240,2013-02-24 16:53:00
12:53 PM,30.9,21.0,67,30.13,10.0,West,10.4,-,N/A,,Clear,260,2013-02-24 17:53:00
1:53 PM,32.0,19.0,59,30.12,10.0,West,11.5,-,N/A,,Clear,270,2013-02-24 18:53:00
2:53 PM,33.1,19.9,59,30.11,10.0,WSW,6.9,-,N/A,,Clear,250,2013-02-24 19:53:00
3:53 PM,34.0,21.0,59,30.12,10.0,West,6.9,-,N/A,,Clear,270,2013-02-24 20:53:00
4:53 PM,35.1,21.9,59,30.12,10.0,SW,8.1,-,N/A,,Partly Cloudy,230,2013-02-24 21:53:00
5:53 PM,34.0,21.9,61,30.14,10.0,SW,5.8,-,N/A,,Partly Cloudy,230,2013-02-24 22:53:00
6:53 PM,32.0,21.9,66,30.15,10.0,Calm,Calm,-,N/A,,Clear,0,2013-02-24 23:53:00
7:53 PM,28.0,21.0,75,30.17,10.0,NE,3.5,-,N/A,,Clear,40,2013-02-25 00:53:00
8:53 PM,27.0,19.9,75,30.17,8.0,Calm,Calm,-,N/A,,Clear,0,2013-02-25 01:53:00
9:53 PM,24.1,19.9,84,30.17,7.0,Calm,Calm,-,N/A,,Clear,0,2013-02-25 02:53:00
10:53 PM,24.1,19.0,81,30.18,4.0,Calm,Calm,-,N/A,,Haze,0,2013-02-25 03:53:00
11:53 PM,23.0,19.0,85,30.17,5.0,Calm,Calm,-,N/A,,Clear,0,2013-02-25 04:53:00